Cloud_Cover
11 1 0 0 0 0 0 0 0 0 0 0 0 0 0 0 0 1 0 5 18 9 4 5 9 100 100 100 100 100 100 75 100 100 100 100 100 100 100 100 100 100 100
43 4 0 0 0 0 0 0 0 0 0 0 0 0 0 0 0 0 0 0 0 0 0 9 5 94 91 100 100 100 100 99 100 100 100 100 100 100 100 100 88 100 97
95 14 5 0 0 0 0 0 0 0 0 0 0 0 0 0 0 0 0 0 0 0 0 0 5 40 82 100 100 100 100 100 100 100 100 100 100 100 100 100 100 70 93
31 64 4 0 0 0 0 0 0 0 0 0 0 0 0 0 0 0 0 0 0 0 0 0 4 76 100 100 100 100 100 100 100 100 100 100 100 100 100 100 86 100 100
5 5 5 5 3 0 0 0 0 0 0 0 0 0 0 0 0 0 0 0 0 0 0 0 5 52 43 100 100 100 97 100 100 100 100 100 100 100 100 95 65 100 100
100 23 87 5 8 67 0 0 0 0 0 0 0 0 0 0 0 0 0 0 0 0 0 0 1 100 90 100 100 100 100 100 100 100 100 100 100 100 96 65 100 100 100
100 86 48 5 54 24 4 0 0 0 0 0 0 0 0 0 0 0 0 0 0 0 0 0 0 84 44 96 100 100 100 100 100 100 100 100 100 100 100 100 100 100 66
53 54 99 100 62 5 2 0 0 0 0 0 0 0 0 0 0 0 0 0 0 0 0 0 0 2 100 65 100 100 100 100 96 88 100 100 100 100 100 100 95 26 64
100 69 100 62 28 81 92 27 5 3 0 4 4 0 0 0 0 0 0 0 0 0 0 0 0 5 74 100 90 100 100 100 100 100 100 100 100 100 100 100 96 22 80
56 41 83 100 98 5 3 5 11 10 28 5 40 40 5 2 0 0 0 0 0 0 0 0 98 73 100 100 100 100 100 91 100 100 100 100 100 100 100 100 11 93 10
2 61 100 100 91 90 95 68 21 55 2 5 5 5 5 2 5 2 0 0 0 0 0 0 0 100 100 100 99 100 100 100 100 100 100 100 100 100 100 95 12 48 26
0 0 0 1 66 46 100 100 100 80 33 31 4 5 0 1 89 61 80 95 52 41 0 0 10 100 100 100 100 100 100 100 100 100 100 100 100 100 94 86 11 6 32
90 26 2 0 0 94 100 100 100 100 100 82 21 59 21 0 0 100 100 100 100 100 99 52 98 100 100 100 100 100 100 100 100 100 100 100 100 93 100 53 49 54 72
66 100 100 49 12 16 19 91 92 95 43 4 1 0 0 0 0 0 22 98 100 100 100 100 100 100 100 100 100 100 100 100 100 100 100 100 100 100 100 64 66 42 67
100 100 100 100 30 36 36 2 0 0 0 0 0 0 0 0 0 0 14 0 1 94 100 100 100 100 100 100 100 100 100 100 100 100 100 100 100 100 99 44 49 62 22
100 100 100 100 99 76 39 5 62 25 37 86 90 75 89 68 48 100 100 100 100 100 100 100 100 100 100 100 100 100 100 100 100 100 100 100 100 100 37 52 93 71 5
100 100 100 100 100 100 100 100 92 95 100 100 100 97 100 100 100 100 100 100 100 100 100 100 100 100 100 100 100 100 100 100 100 100 100 100 100 86 96 89 87 15 4
100 100 100 100 100 100 100 100 100 100 98 100 100 100 100 100 100 100 100 100 100 100 100 100 100 100 100 100 100 100 100 100 100 100 100 75 100 100 100 89 100 90 96
100 100 100 100 100 100 100 100 100 100 100 99 86 100 100 100 100 100 100 96 68 100 100 100 100 100 100 100 100 100 100 100 100 100 62 100 99 100 100 99 100 100 99
100 100 100 100 100 100 100 100 100 100 100 100 100 99 97 100 100 100 100 100 99 100 100 100 100 100 100 100 100 100 94 90 99 97 83 96 70 98 98 100 100 18 9
100 62 100 100 100 92 61 87 100 100 100 100 100 100 100 100 100 100 100 100 100 100 100 100 100 100 100 100 100 12 47 33 98 50 54 5 72 100 100 100 12 5 10
100 100 82 35 100 98 80 100 100 53 100 62 90 82 100 100 100 100 100 100 100 100 100 100 100 100 100 100 57 74 57 52 11 44 100 100 100 73 29 38 84 49 73
100 99 100 97 95 100 98 100 100 100 50 36 52 61 100 100 100 100 100 100 100 100 100 100 100 100 51 30 78 80 88 49 100 100 100 100 21 67 88 26 46 100 100
100 100 100 100 100 90 99 100 90 83 94 99 97 97 100 100 100 100 100 99 100 100 100 88 100 30 97 96 98 89 100 100 100 100 100 100 100 86 38 62 100 96 99
100 100 100 100 100 100 100 100 100 100 100 81 73 85 100 100 100 100 100 100 100 100 100 99 60 90 100 100 100 100 100 100 100 96 28 99 83 100 90 40 33 39 32
100 100 100 100 100 100 100 100 100 100 100 100 100 100 100 100 100 100 100 100 100 96 73 55 100 100 100 100 100 100 100 100 100 42 33 38 85 34 79 14 12 3 5